Location: Battery Park City
(40.7115°N, 74.0163°W)
Time: 12:46:40
(UTC+00:00)

Cosmos 2278 Rocket - Pass Details

Date: 08 December 2019
Orbit: 843 x 844 km, 71.0° (Epoch: 26 January)

Event Time Altitude Azimuth Distance (km) Brightness Sun altitude
Rises 22:40:47 0° 336° (NNW) 3,408 5.4 -13.3°
Reaches altitude 10° 22:43:14 10° 337° (NNW) 2,469 4.7 -13.7°
Maximum altitude 22:48:55 88° 63° (ENE) 849 2.2 -14.8°
Drops below altitude 10° 22:54:34 10° 158° (SSE) 2,453 4.6 -15.8°
Sets 22:57:00 0° 158° (SSE) 3,384 5.3 -16.2°
